sat.trackr.live / text

‹ back to catalog

SHIJIAN-6 04B (SJ-6 04B)

NORAD 37180 · 2010-051B

PAYLOAD ACTIVE UNKNOWN

§ Identity

Operator
Country
PRC
Launch date
2010-10-06
Launch site
TAISC
Launch vehicle
Mass (kg)
RCS (m²)
2.45

External: N2YO · Heavens-Above · Gunter

§ Orbital elements

Epoch: 2026-09-20T04:28:56.685216Z

Period
96.03 min
Inclination
97.8784°
Eccentricity
0.0012414
Mean motion
14.99482976 rev/d
Perigee alt
559.9 km
Apogee alt
577.1 km
Semi-major
6,946.6 km
B*
4.5791e-5
RAAN
269.6203°
Arg perigee
8.2985°
Mean anomaly
351.8441°
Rev number
86,991

§ Raw data

SHIJIAN-6 04B (SJ-6 04B)1 37180U 10051B   26263.18676719  .00000500  00000+0  45791-4 0  99942 37180  97.8784 269.6203 0012414   8.2985 351.8441 14.99482976869914

JSON: /api/v1/satellites/37180 · /tle

For live sub-satellite position, see the globe view (requires WebGL).

§ Visibility from observer

Set your observer location to see the next 7 days of passes ≥ 10°. The values pass through the URL so the page stays shareable.

No JS? Fill the form by hand. The geolocation button needs JavaScript.

§ Radio — SatNOGS DB

ModeDescriptionDownlinkUplink
FM S-band telemetry 2.236 GHz

1 transmitter · refreshed weekly from db.satnogs.org